TimeBST,TemperatureF,Dew PointF,Humidity,Sea Level PressureIn,VisibilityMPH,Wind Direction,Wind SpeedMPH,Gust SpeedMPH,PrecipitationIn,Events,Conditions,WindDirDegrees,DateUTC
12:50 AM,42,40,92,,,ESE,5.8,,,,,110,2012-10-07 23:50:00
3:50 AM,44,42,88,,,East,6.9,,,,,100,2012-10-08 02:50:00
6:20 AM,44.6,44.6,100,30.04,6.2,East,6.9,-,N/A,,Partly Cloudy,90,2012-10-08 05:20:00
6:50 AM,46,43,86,,,East,8.1,,,,,90,2012-10-08 05:50:00
6:50 AM,46.4,44.6,93,30.01,6.2,East,6.9,-,N/A,,Partly Cloudy,100,2012-10-08 05:50:00
7:20 AM,46.4,44.6,93,30.01,6.2,East,6.9,-,N/A,,Partly Cloudy,90,2012-10-08 06:20:00
7:50 AM,46.4,44.6,93,30.01,6.2,ENE,6.9,-,N/A,,Partly Cloudy,60,2012-10-08 06:50:00
8:20 AM,48.2,44.6,87,30.01,6.2,East,9.2,-,N/A,,Scattered Clouds,100,2012-10-08 07:20:00
8:50 AM,48.2,46.4,93,30.01,6.2,ESE,8.1,-,N/A,,Partly Cloudy,110,2012-10-08 07:50:00
9:20 AM,50.0,46.4,87,30.01,6.2,East,5.8,-,N/A,,Partly Cloudy,80,2012-10-08 08:20:00
9:50 AM,52,47,76,,,ENE,9.2,,,,,70,2012-10-08 08:50:00
9:50 AM,51.8,48.2,88,30.01,6.2,East,9.2,-,N/A,,Partly Cloudy,80,2012-10-08 08:50:00
10:20 AM,51.8,46.4,82,30.01,6.2,ENE,9.2,-,N/A,,Partly Cloudy,70,2012-10-08 09:20:00
10:50 AM,53.6,48.2,82,29.98,6.2,East,8.1,-,N/A,,Partly Cloudy,100,2012-10-08 09:50:00
11:20 AM,55.4,50.0,82,29.98,6.2,East,9.2,-,N/A,,Partly Cloudy,90,2012-10-08 10:20:00
11:50 AM,57.2,50.0,77,29.98,6.2,East,9.2,-,N/A,,Partly Cloudy,90,2012-10-08 10:50:00
12:20 PM,59.0,51.8,77,29.98,6.2,ENE,6.9,-,N/A,,Partly Cloudy,70,2012-10-08 11:20:00
12:50 PM,58,49,64,,,East,8.1,,,,,90,2012-10-08 11:50:00
12:50 PM,59.0,50.0,72,29.98,6.2,East,6.9,-,N/A,,Partly Cloudy,90,2012-10-08 11:50:00
1:20 PM,59.0,51.8,77,29.98,6.2,East,5.8,-,N/A,,Partly Cloudy,100,2012-10-08 12:20:00
1:50 PM,59.0,51.8,77,29.95,6.2,East,4.6,-,N/A,,Scattered Clouds,90,2012-10-08 12:50:00
2:20 PM,59.0,50.0,72,29.95,6.2,ESE,4.6,-,N/A,,Partly Cloudy,110,2012-10-08 13:20:00
2:50 PM,59.0,50.0,72,29.95,6.2,East,4.6,-,N/A,,Scattered Clouds,100,2012-10-08 13:50:00
3:20 PM,59.0,50.0,72,29.95,6.2,Variable,3.5,-,N/A,,Partly Cloudy,0,2012-10-08 14:20:00
3:50 PM,59,48,57,,,East,3.5,,,,,80,2012-10-08 14:50:00
3:50 PM,60.8,50.0,68,29.92,6.2,Variable,2.3,-,N/A,,Partly Cloudy,0,2012-10-08 14:50:00
4:20 PM,59.0,48.2,67,29.92,6.2,Variable,2.3,-,N/A,,Partly Cloudy,0,2012-10-08 15:20:00
4:50 PM,59.0,50.0,72,29.92,6.2,NNE,6.9,-,N/A,,Partly Cloudy,30,2012-10-08 15:50:00
5:20 PM,57.2,50.0,77,29.92,6.2,NNE,8.1,-,N/A,,Partly Cloudy,30,2012-10-08 16:20:00
5:50 PM,57.2,48.2,72,29.95,6.2,NNE,8.1,-,N/A,,Partly Cloudy,20,2012-10-08 16:50:00
6:20 PM,55.4,48.2,77,29.95,-9999.0,ENE,4.6,-,N/A,,Clear,60,2012-10-08 17:20:00
6:50 PM,53,47,73,,,NE,5.8,,,,,40,2012-10-08 17:50:00
6:50 PM,53.6,48.2,82,29.95,-9999.0,NE,4.6,-,N/A,,Clear,40,2012-10-08 17:50:00
7:20 PM,51.8,46.4,82,29.95,-9999.0,NE,4.6,-,N/A,,Clear,50,2012-10-08 18:20:00
7:50 PM,51.8,46.4,82,29.98,-9999.0,NE,4.6,-,N/A,,Clear,50,2012-10-08 18:50:00
8:20 PM,50.0,46.4,87,29.98,-9999.0,NE,4.6,-,N/A,,Clear,50,2012-10-08 19:20:00
8:50 PM,50.0,46.4,87,29.98,-9999.0,NE,5.8,-,N/A,,Clear,40,2012-10-08 19:50:00
9:50 PM,44,41,86,,,East,5.8,,,,,80,2012-10-08 20:50:00